Regional Weather Roundup
Issued by NWS

Home | Current Version | Previous Version | Graphics & Text | Print | Product List | Glossary On
Versions: 1 2 3 4 5 6 7 8 9 10 11 12 13 14 15 16 17 18 19 20 21 22 23 24 25 26 27 28 29 30 31 32 33 34 35 36 37 38 39 40 41 42 43 44 45 46 47 48 49 50
000
ASUS43 KOAX 272010
RWRNE

WEATHER ROUNDUP FOR NEBRASKA
NATIONAL WEATHER SERVICE OMAHA NE
300 PM CDT TUE JUN 27 2017

NOTES: SATELLITE DATA IS BEING USED TO AUGMENT CLOUD COVER ABOVE
       12000 FEET.
       "FAIR" INDICATES FEW OR NO CLOUDS BELOW 12,000 FEET WITH NO
       SIGNIFICANT WEATHER AND/OR OBSTRUCTIONS TO VISIBILITY.

  * THESE STATIONS DO NOT REPORT WEATHER SUCH AS RAIN...SNOW OR FOG.

NEZ001>004-019>022-054>056-272100-
NEBRASKA PANHANDLE

CITY           SKY/WX    TMP DP  RH WIND       PRES   REMARKS
SCOTTSBLUFF    SUNNY     95  39  14 SE5       29.71F HX  91
ALLIANCE       SUNNY     88  57  34 SE16      29.75F
CHADRON        CLOUDY    91  49  23 W7        29.66F
GORDON         FAIR      86  58  38 SW17      29.73S
KIMBALL        CLOUDY    88  42  20 S10       29.80F
SIDNEY         SUNNY     91  52  26 S14G22    29.79F
$$

NEZ057>060-069>072-079>082-272100-
SOUTHWEST NEBRASKA

CITY           SKY/WX    TMP DP  RH WIND       PRES   REMARKS
NORTH PLATTE   SUNNY     78  62  57 S15       29.80F
IMPERIAL       SUNNY     89  57  33 S18G25    29.79F
LEXINGTON      PTSUNNY   80  64  59 SE20G28   29.83F
MCCOOK         SUNNY     89  66  46 SE18G26   29.78F HX  91
OGALLALA       MOSUNNY   87  57  35 S20G29    29.77F
$$

NEZ005>010-023>029-035>040-094-272100-
NORTH CENTRAL NEBRASKA

CITY           SKY/WX    TMP DP  RH WIND       PRES   REMARKS
VALENTINE      SUNNY     90  57  32 S29G38    29.68F
AINSWORTH      SUNNY     84  62  47 S29G37    29.74F
BROKEN BOW     MOSUNNY   81  64  56 S25G31    29.83F
O`NEILL        SUNNY     81  60  49 S24G33    29.80F
ORD            MOSUNNY   83  61  47 S22G33    29.82F
THEDFORD       SUNNY     84  62  47 S23G30    29.78F
$$

NEZ041-046>049-061>064-073>077-083>087-272100-
SOUTH CENTRAL NEBRASKA

CITY           SKY/WX    TMP DP  RH WIND       PRES   REMARKS
GRAND ISLAND   PTSUNNY   82  66  58 S25       29.87F
AURORA         PTSUNNY   80  63  57 SE22      29.87F
HASTINGS       CLOUDY    82  65  56 S20G29    29.87F
HEBRON         PTSUNNY   82  65  58 S14G22    29.90F
HOLDREGE       PTSUNNY   81  64  55 SE17G25   29.84F
KEARNEY *      CLOUDY    79  63  57 S16G23    29.87F
YORK           PTSUNNY   81  64  57 SE16G24   29.89F
$$

NEZ011>018-030>034-042>045-272100-
NORTHEAST NEBRASKA

CITY           SKY/WX    TMP DP  RH WIND       PRES   REMARKS
NORFOLK        SUNNY     80  59  48 S16G29    29.86F
ALBION         SUNNY     82  61  49 S20G28    29.85F
BLAIR          MOSUNNY   79  60  52 SE21G26   29.93F
FREMONT        SUNNY     78  61  54 SE17G25   29.92F
TEKAMAH        SUNNY     81  58  45 SE17      29.91F
WAYNE          SUNNY     81  60  48 S21G30    29.88F
$$

NEZ050>053-065>068-078-088>093-272100-
SOUTHEAST NEBRASKA

CITY           SKY/WX    TMP DP  RH WIND       PRES   REMARKS
LINCOLN        MOSUNNY   81  63  54 SE18G25   29.91F
OMAHA EPPLEY   PTSUNNY   80  60  50 S17G28    29.94F
BEATRICE       PTSUNNY   79  66  64 SE13G24   29.91F
FALLS CITY     PTSUNNY   79  64  60 SE12      29.95F
NEBRASKA CITY  PTSUNNY   78  65  66 S15G24    29.96F
PLATTSMOUTH    SUNNY     78  60  55 SE15G23   29.95F
$$

NEZ044-045-051>053-067-272100-
OMAHA AREA

CITY           SKY/WX    TMP DP  RH WIND       PRES   REMARKS
OMAHA EPPLEY   PTSUNNY   80  60  50 S17G28    29.94F
BLAIR          MOSUNNY   79  60  52 SE21G26   29.93F
FREMONT        SUNNY     78  61  54 SE17G25   29.92F
MILLARD        MOSUNNY   79  64  58 SE16G24   29.94F
OFFUTT AFB     SUNNY     79  61  52 SE18      29.93F
PLATTSMOUTH    SUNNY     78  60  55 SE15G23   29.95F
WAHOO          CLOUDY    80  60  50 SE21G28   29.92F
$$




USA.gov is the U.S. government's official web portal to all federal, state and local government web resources and services.